RASAT (37791 NORAD) Tracking and Keplerian Element Data

This shows tracking and keplerian element data for the satellite.

Feedback or suggestion? Click here.




ElementValue
Catalog37791
NameRASAT
Epoch Orbit72015
Epoch Day35.18070021
Epoch Year2025
RAAN129.1265
Inclination98.0697
Eccentricity0.0020314
Argument of Perigee333.3922
Mean Anonmoly51.6111
Mean Motion14.67252952
Decay Rate1.309E-05
L11 37791U 11044D 25035.18070021 .00001309 00000+0 24027-3 0 9991
L22 37791 98.0697 129.1265 0020314 333.3922 51.6111 14.67252952720152



Live tracking and technical data element details for RASAT (NORAD 37791). RASAT can be tracked NOW for your location showing map with azimuth and elevation plus other details from your city location.







IsCatalogInMostPopularTable: catalog: 37791, numindb: 318
Update: records affected: 1



GetName: 37791 RASAT

Hit Count: updated at: Thu, 22 May 2025 03:37:57 GMT